{"data":{"norad_id":48320,"epoch":"2026-09-19T15:45:54.390528Z","epoch_age_seconds":106477,"freshness":"FRESH","line1":"1 48320U 21036AW  26262.65687952 -.00000740  00000+0 -12065-4 0  9995","line2":"2 48320  53.1602 278.7631 0001477  71.5666 288.5496 15.31697214297751","mean_motion":15.31697214,"eccentricity":0.0001477,"inclination_deg":53.1602,"raan_deg":278.7631,"arg_perigee_deg":71.5666,"mean_anomaly_deg":288.5496,"bstar":-1.2065e-5,"rev_number":29775,"period_min":94.013358961427,"perigee_km":469.73671980043,"apogee_km":471.7598805181,"semimajor_km":6848.8853001593,"source":"CELESTRAK","updated_at":"2026-09-20T09:00:38.935788Z"}}